Location: Unspecified
(48.5670°N, 0.0000°E)
Time: 18:32:37
(UTC+00:00)

PCSat - Visible Passes

Search period start: 24 October 2020 00:00
Search period end: 03 November 2020 00:00
Orbit: 785 x 794 km, 67.1° (Epoch: 23 October)

Date Brightness Start Highest point End Pass type
(mag) Time Alt. Az. Time Alt. Az. Time Alt. Az.
24 Oct 10.5 17:39:55 10° NNW 17:44:41 30° NE 17:49:06 11° E visible
24 Oct 9.9 19:23:05 10° NW 19:28:29 63° WSW 19:29:51 47° S visible
24 Oct 12.4 21:10:29 10° W 21:10:36 10° W 21:10:36 10° W visible
25 Oct 9.6 18:52:02 10° NW 18:57:30 83° WSW 19:00:21 29° SSE visible
25 Oct 12.1 20:37:13 10° WNW 20:40:03 14° WSW 20:41:06 14° WSW visible
26 Oct 9.5 18:21:01 10° NNW 18:26:29 77° NE 18:31:02 15° SE visible
26 Oct 11.8 20:05:28 10° WNW 20:09:16 20° WSW 20:11:48 14° SW visible
27 Oct 9.6 17:50:01 10° NNW 17:55:25 60° NE 18:00:47 10° SE visible
27 Oct 11.5 19:34:00 10° NW 19:38:27 26° WSW 19:42:49 10° SSW visible
28 Oct 9.9 17:19:03 10° NNW 17:24:19 47° NE 17:29:32 10° ESE visible
28 Oct 11.1 19:02:42 10° NW 19:07:35 35° WSW 19:12:26 10° S visible
29 Oct 10.6 18:31:30 10° NW 18:36:41 46° WSW 18:41:50 10° S visible
30 Oct 10.1 18:00:23 10° NW 18:05:45 61° WSW 18:11:05 10° SSE visible
31 Oct 9.7 17:29:19 10° NW 17:34:47 81° WSW 17:40:12 10° SSE visible
31 Oct 12.5 19:14:38 10° WNW 19:17:17 14° WSW 19:19:56 10° SW visible
01 Nov 12.3 18:42:49 10° WNW 18:46:31 19° WSW 18:50:12 10° SSW visible
02 Nov 11.9 18:11:19 10° NW 18:15:42 25° WSW 18:20:03 10° SSW visible
